Time,TemperatureF,DewpointF,PressureIn,WindDirection,WindDirectionDegrees,WindSpeedMPH,WindSpeedGustMPH,Humidity,HourlyPrecipIn,Conditions,Clouds,dailyrainin,SoftwareType,DateUTC
2013-02-10 00:11:00,6.0,-99.9,30.22,SSE,159,3.0,4.0,-999,-99.99,,,-99.99,,2013-02-10 05:11:00,
2013-02-10 00:42:00,7.0,-99.9,30.21,SSE,161,3.0,4.0,-999,-99.99,,,-99.99,,2013-02-10 05:42:00,
2013-02-10 01:11:00,9.0,-99.9,30.22,SSE,167,4.0,5.0,-999,-99.99,,,-99.99,,2013-02-10 06:11:00,
2013-02-10 01:42:00,9.0,-99.9,30.22,SW,218,1.0,3.0,-999,-99.99,,,-99.99,,2013-02-10 06:42:00,
2013-02-10 02:11:00,6.0,-99.9,30.21,ENE,61,0.0,2.0,-999,-99.99,,,-99.99,,2013-02-10 07:11:00,
2013-02-10 02:42:00,11.0,-99.9,30.19,SE,143,7.0,9.0,-999,-99.99,,,-99.99,,2013-02-10 07:42:00,
2013-02-10 03:11:00,13.0,-99.9,30.19,SE,143,6.0,7.0,-999,-99.99,,,-99.99,,2013-02-10 08:11:00,
2013-02-10 03:43:00,14.0,-99.9,30.19,SE,141,3.0,5.0,-999,-99.99,,,-99.99,,2013-02-10 08:43:00,
2013-02-10 04:11:00,15.0,-99.9,30.18,SE,130,3.0,4.0,-999,-99.99,,,-99.99,,2013-02-10 09:11:00,
2013-02-10 04:42:00,15.0,-99.9,30.16,SSE,152,4.0,6.0,-999,-99.99,,,-99.99,,2013-02-10 09:42:00,
2013-02-10 05:11:00,16.0,-99.9,30.16,SE,145,4.0,6.0,-999,-99.99,,,-99.99,,2013-02-10 10:11:00,
2013-02-10 05:42:00,17.0,-99.9,30.17,SE,140,3.0,4.0,-999,-99.99,,,-99.99,,2013-02-10 10:42:00,
2013-02-10 06:42:00,19.0,-99.9,30.16,SE,146,4.0,5.0,-999,-99.99,,,-99.99,,2013-02-10 11:42:00,
2013-02-10 07:12:00,21.0,-99.9,30.16,SE,138,3.0,5.0,-999,-99.99,,,-99.99,,2013-02-10 12:12:00,
2013-02-10 07:42:00,22.0,-99.9,30.17,SE,138,2.0,4.0,-999,-99.99,,,-99.99,,2013-02-10 12:42:00,
2013-02-10 08:42:00,22.0,-99.9,30.17,SE,141,4.0,5.0,-999,-99.99,,,-99.99,,2013-02-10 13:42:00,
2013-02-10 09:12:00,24.0,-99.9,30.16,ESE,115,4.0,6.0,-999,-99.99,,,-99.99,,2013-02-10 14:12:00,
2013-02-10 10:12:00,23.0,-99.9,30.14,East,100,4.0,8.0,-999,-99.99,,,-99.99,,2013-02-10 15:12:00,
2013-02-10 10:42:00,23.0,-99.9,30.12,ESE,104,4.0,10.0,-999,-99.99,,,-99.99,,2013-02-10 15:42:00,
2013-02-10 11:42:00,26.0,-99.9,30.09,East,80,9.0,13.0,-999,-99.99,,,-99.99,,2013-02-10 16:42:00,
2013-02-10 12:12:00,26.0,-99.9,30.08,ESE,110,11.0,14.0,-999,-99.99,,,-99.99,,2013-02-10 17:12:00,
2013-02-10 12:42:00,26.0,-99.9,30.07,ESE,109,11.0,17.0,-999,-99.99,,,-99.99,,2013-02-10 17:42:00,
2013-02-10 13:42:00,30.0,-99.9,30.05,SE,132,10.0,15.0,-999,-99.99,,,-99.99,,2013-02-10 18:42:00,
2013-02-10 14:12:00,31.0,-99.9,30.03,ESE,107,9.0,15.0,-999,-99.99,,,-99.99,,2013-02-10 19:12:00,
2013-02-10 15:11:00,33.0,-99.9,29.99,ESE,111,9.0,13.0,-999,-99.99,,,-99.99,,2013-02-10 20:11:00,
2013-02-10 15:22:00,33.0,-99.9,29.98,North,-999,-999.0,-999.0,-999,-99.99,,,-99.99,,2013-02-10 20:22:00,
2013-02-10 15:32:00,33.0,-99.9,29.98,North,-999,-999.0,-999.0,-999,-99.99,,,-99.99,,2013-02-10 20:32:00,
2013-02-10 15:42:00,33.0,-99.9,29.98,SE,124,10.0,17.0,-999,-99.99,,,-99.99,,2013-02-10 20:42:00,
2013-02-10 15:53:00,33.0,-99.9,29.97,North,-999,-999.0,-999.0,-999,-99.99,,,-99.99,,2013-02-10 20:53:00,
2013-02-10 16:03:00,33.0,-99.9,29.97,North,-999,-999.0,-999.0,-999,-99.99,,,-99.99,,2013-02-10 21:03:00,
2013-02-10 16:12:00,33.0,-99.9,29.96,SE,132,13.0,23.0,-999,-99.99,,,-99.99,,2013-02-10 21:12:00,
2013-02-10 16:22:00,34.0,-99.9,29.96,North,-999,-999.0,-999.0,-999,-99.99,,,-99.99,,2013-02-10 21:22:00,
2013-02-10 16:32:00,34.0,-99.9,29.95,North,-999,-999.0,-999.0,-999,-99.99,,,-99.99,,2013-02-10 21:32:00,
2013-02-10 16:42:00,34.0,-99.9,29.95,North,-999,-999.0,-999.0,-999,-99.99,,,-99.99,,2013-02-10 21:42:00,
2013-02-10 16:52:00,34.0,-99.9,29.94,North,-999,-999.0,-999.0,-999,-99.99,,,-99.99,,2013-02-10 21:52:00,
2013-02-10 17:02:00,34.0,-99.9,29.93,North,-999,-999.0,-999.0,-999,-99.99,,,-99.99,,2013-02-10 22:02:00,
2013-02-10 17:12:00,33.0,-99.9,29.93,ESE,103,9.0,18.0,-999,-99.99,,,-99.99,,2013-02-10 22:12:00,
2013-02-10 17:22:00,32.0,-99.9,29.92,North,-999,-999.0,-999.0,-999,-99.99,,,-99.99,,2013-02-10 22:22:00,
2013-02-10 17:42:00,31.0,-99.9,29.91,ESE,116,11.0,21.0,-999,-99.99,,,-99.99,,2013-02-10 22:42:00,
2013-02-10 18:12:00,30.0,-99.9,29.89,ESE,121,12.0,23.0,-999,-99.99,,,-99.99,,2013-02-10 23:12:00,
2013-02-10 18:42:00,30.0,-99.9,29.86,ESE,123,14.0,25.0,-999,-99.99,,,-99.99,,2013-02-10 23:42:00,
2013-02-10 19:11:00,30.0,-99.9,29.85,ESE,122,17.0,23.0,-999,-99.99,,,-99.99,,2013-02-11 00:11:00,
2013-02-10 19:42:00,29.0,-99.9,29.83,ESE,115,16.0,24.0,-999,-99.99,,,-99.99,,2013-02-11 00:42:00,
2013-02-10 20:42:00,29.0,-99.9,29.78,ESE,112,15.0,25.0,-999,-99.99,,,-99.99,,2013-02-11 01:42:00,
2013-02-10 21:11:00,29.0,-99.9,29.76,ESE,121,14.0,22.0,-999,-99.99,,,-99.99,,2013-02-11 02:11:00,
2013-02-10 22:42:00,29.0,-99.9,29.70,ESE,119,12.0,19.0,-999,-99.99,,,-99.99,,2013-02-11 03:42:00,
2013-02-10 23:11:00,29.0,-99.9,29.67,SE,125,11.0,16.0,-999,-99.99,,,-99.99,,2013-02-11 04:11:00,